When you browse on this site, cookies collect data to enhance your experience and personalize the content and advertising you see.
Visit our Privacy Policy to learn more. By continuing to use the site, you agree to this use of cookies and data.
  • In Czech Republic
  • List of Countries
  • For 7 days
  • Water Temperature
  • Satellite Maps
  • Weather Map
  • Weather Widgets
  • user-avatar
    Login

    Hourly Weather Lyushino

    Today, 16 November, Friday

    Time Temperature Precipitation Wind Pressure Humidity
    00:00 -1°C° 0 mm 1 mps 762 mmHg 79%
    01:00 -1°C° 0 mm 1 mps 763 mmHg 79%
    02:00 -1°C° 0 mm 1 mps 763 mmHg 79%
    03:00 -1°C° 0 mm 1 mps 763 mmHg 79%
    04:00 -1°C° 0 mm 1 mps 763 mmHg 78%
    05:00 -1°C° 0 mm 1 mps 763 mmHg 78%
    06:00 -1°C° 0 mm 1 mps 764 mmHg 77%
    07:00 -1°C° 0 mm 1 mps 764 mmHg 76%
    08:00 -1°C° 0 mm 1 mps 764 mmHg 75%
    09:00 0°C° 0 mm 1 mps 765 mmHg 70%
    10:00 +1°C° 0 mm 1 mps 765 mmHg 66%
    11:00 +2°C° 0 mm 1 mps 765 mmHg 62%
    12:00 +2°C° 0 mm 1 mps 765 mmHg 63%
    13:00 +2°C° 0 mm 1 mps 765 mmHg 64%
    14:00 +2°C° 0 mm 1 mps 765 mmHg 67%
    15:00 +1°C° 0 mm 1 mps 765 mmHg 69%
    16:00 0°C° 0 mm 1 mps 765 mmHg 71%
    17:00 0°C° 0 mm 1 mps 765 mmHg 73%
    18:00 0°C° 0 mm 1 mps 765 mmHg 74%
    19:00 0°C° 0 mm 1 mps 765 mmHg 75%
    20:00 -2°C° 0 mm 2 mps 765 mmHg 76%
    21:00 -2°C° 0 mm 2 mps 765 mmHg 76%
    22:00 -2°C° 0 mm 2 mps 765 mmHg 77%
    23:00 -2°C° 0 mm 2 mps 765 mmHg 77%

    Tomorrow, 17 November, Saturday

    Time Temperature Precipitation Wind Pressure Humidity
    00:00 -2°C° 0 mm 2 mps 764 mmHg 77%
    01:00 -2°C° 0 mm 2 mps 764 mmHg 77%
    02:00 -2°C° 0 mm 2 mps 764 mmHg 77%
    03:00 -2°C° 0 mm 3 mps 764 mmHg 78%
    04:00 -4°C° 0 mm 3 mps 763 mmHg 78%
    05:00 -4°C° 0 mm 3 mps 763 mmHg 78%
    06:00 -4°C° 0 mm 3 mps 762 mmHg 78%
    07:00 -4°C° 0 mm 3 mps 762 mmHg 78%
    08:00 -4°C° 0 mm 3 mps 762 mmHg 78%
    09:00 -3°C° 0 mm 4 mps 761 mmHg 75%
    10:00 -2°C° 0 mm 4 mps 760 mmHg 72%
    11:00 -1°C° 0 mm 4 mps 760 mmHg 69%
    12:00 -1°C° 0 mm 4 mps 759 mmHg 69%
    13:00 -1°C° 0 mm 4 mps 758 mmHg 70%
    14:00 -1°C° 0 mm 4 mps 758 mmHg 71%
    15:00 -1°C° 0.3 mm 4 mps 757 mmHg 75%
    16:00 -1°C° 0.3 mm 4 mps 757 mmHg 79%
    17:00 -1°C° 0.3 mm 4 mps 756 mmHg 83%
    18:00 -1°C° 0.1 mm 4 mps 755 mmHg 85%
    19:00 -1°C° 0.1 mm 4 mps 754 mmHg 86%
    20:00 -1°C° 0.1 mm 4 mps 753 mmHg 88%
    21:00 -1°C° 0.1 mm 4 mps 752 mmHg 89%
    22:00 -1°C° 0.1 mm 4 mps 751 mmHg 90%
    23:00 -1°C° 0.1 mm 4 mps 751 mmHg 91%

    Day after tomorrow, 18 November, Sunday

    Time Temperature Precipitation Wind Pressure Humidity
    00:00 -1°C° 0.1 mm 4 mps 750 mmHg 91%
    01:00 -1°C° 0.1 mm 4 mps 749 mmHg 92%
    02:00 -1°C° 0.1 mm 4 mps 748 mmHg 92%
    03:00 -1°C° 0.1 mm 4 mps 748 mmHg 92%
    04:00 0°C° 0.1 mm 4 mps 747 mmHg 93%
    05:00 0°C° 0.1 mm 4 mps 746 mmHg 93%
    06:00 +1°C° 0.1 mm 3 mps 746 mmHg 94%
    07:00 +1°C° 0.1 mm 3 mps 746 mmHg 94%
    08:00 +1°C° 0.1 mm 3 mps 745 mmHg 95%
    09:00 +1°C° 0.1 mm 3 mps 745 mmHg 95%
    10:00 +2°C° 0.1 mm 2 mps 745 mmHg 95%
    11:00 +2°C° 0.1 mm 2 mps 745 mmHg 95%
    12:00 +2°C° 0.1 mm 2 mps 745 mmHg 95%
    13:00 +2°C° 0.1 mm 2 mps 745 mmHg 96%
    14:00 +2°C° 0.1 mm 2 mps 745 mmHg 96%
    15:00 +2°C° 0.3 mm 2 mps 745 mmHg 96%
    16:00 +2°C° 0.3 mm 2 mps 746 mmHg 96%
    17:00 +2°C° 0.3 mm 2 mps 746 mmHg 96%
    18:00 +1°C° 0.2 mm 2 mps 746 mmHg 96%
    19:00 +1°C° 0.2 mm 2 mps 746 mmHg 96%
    20:00 0°C° 0.2 mm 3 mps 746 mmHg 96%
    21:00 0°C° 0.1 mm 3 mps 747 mmHg 96%
    22:00 0°C° 0.1 mm 3 mps 747 mmHg 96%
    23:00 0°C° 0.1 mm 3 mps 748 mmHg 96%

    19 November, Monday

    Time Temperature Precipitation Wind Pressure Humidity
    00:00 0°C° 0.1 mm 3 mps 748 mmHg 96%
    01:00 0°C° 0.1 mm 3 mps 749 mmHg 96%
    02:00 0°C° 0.1 mm 3 mps 749 mmHg 96%
    03:00 0°C° 0.1 mm 3 mps 749 mmHg 96%
    04:00 0°C° 0.1 mm 3 mps 750 mmHg 96%
    05:00 0°C° 0.1 mm 3 mps 750 mmHg 95%
    06:00 0°C° 0.2 mm 3 mps 750 mmHg 95%
    07:00 0°C° 0.2 mm 3 mps 751 mmHg 94%
    08:00 0°C° 0.2 mm 3 mps 751 mmHg 94%
    09:00 0°C° 0.2 mm 3 mps 752 mmHg 93%
    10:00 0°C° 0.2 mm 3 mps 752 mmHg 92%
    11:00 0°C° 0.2 mm 3 mps 752 mmHg 91%
    12:00 0°C° 0.1 mm 3 mps 753 mmHg 91%
    13:00 0°C° 0.1 mm 3 mps 753 mmHg 92%
    14:00 0°C° 0.1 mm 3 mps 753 mmHg 92%
    15:00 0°C° 0.1 mm 3 mps 753 mmHg 92%
    16:00 0°C° 0.1 mm 3 mps 754 mmHg 93%
    17:00 0°C° 0.1 mm 3 mps 754 mmHg 94%
    18:00 0°C° 0.1 mm 3 mps 754 mmHg 93%
    19:00 0°C° 0.1 mm 3 mps 754 mmHg 92%
    20:00 -1°C° 0.1 mm 3 mps 754 mmHg 91%
    21:00 -1°C° 0 mm 3 mps 755 mmHg 92%
    22:00 -1°C° 0 mm 3 mps 755 mmHg 92%
    23:00 -1°C° 0 mm 3 mps 755 mmHg 92%

    20 November, Tuesday

    Time Temperature Precipitation Wind Pressure Humidity
    00:00 -2°C° 0 mm 3 mps 755 mmHg 92%
    01:00 -2°C° 0 mm 3 mps 755 mmHg 92%
    02:00 -2°C° 0 mm 3 mps 755 mmHg 92%
    03:00 -2°C° 0 mm 2 mps 755 mmHg 93%
    04:00 -3°C° 0 mm 2 mps 755 mmHg 93%
    05:00 -4°C° 0 mm 2 mps 755 mmHg 93%
    06:00 -4°C° 0 mm 2 mps 755 mmHg 92%
    07:00 -4°C° 0 mm 2 mps 755 mmHg 90%
    08:00 -4°C° 0 mm 2 mps 755 mmHg 89%
    09:00 -4°C° 0 mm 2 mps 755 mmHg 85%
    10:00 -3°C° 0 mm 2 mps 754 mmHg 82%
    11:00 -3°C° 0 mm 2 mps 754 mmHg 78%
    12:00 -2°C° 0 mm 2 mps 754 mmHg 80%
    13:00 -2°C° 0 mm 2 mps 753 mmHg 81%
    14:00 -2°C° 0 mm 2 mps 753 mmHg 82%
    15:00 -3°C° 0 mm 2 mps 753 mmHg 85%
    16:00 -3°C° 0 mm 2 mps 752 mmHg 87%
    17:00 -4°C° 0 mm 2 mps 752 mmHg 90%
    18:00 -4°C° 0 mm 2 mps 752 mmHg 90%
    19:00 -2°C° 0 mm 1 mps 752 mmHg 90%
    20:00 -2°C° 0 mm 1 mps 752 mmHg 90%
    21:00 -2°C° 0.1 mm 1 mps 752 mmHg 90%
    22:00 -2°C° 0.1 mm 1 mps 752 mmHg 90%
    23:00 -1°C° 0.1 mm 1 mps 752 mmHg 90%

    21 November, Wednesday

    Time Temperature Precipitation Wind Pressure Humidity
    00:00 -1°C° 0.1 mm 1 mps 752 mmHg 91%
    01:00 -1°C° 0.1 mm 1 mps 752 mmHg 92%
    02:00 -3°C° 0.1 mm 2 mps 751 mmHg 92%
    03:00 -3°C° 0.1 mm 2 mps 752 mmHg 92%
    04:00 -3°C° 0.1 mm 2 mps 752 mmHg 92%
    05:00 -3°C° 0.1 mm 2 mps 752 mmHg 92%
    06:00 -3°C° 0 mm 2 mps 752 mmHg 92%
    07:00 -3°C° 0 mm 2 mps 752 mmHg 92%
    08:00 -3°C° 0 mm 2 mps 752 mmHg 91%
    09:00 -3°C° 0 mm 2 mps 752 mmHg 90%
    10:00 -2°C° 0 mm 2 mps 753 mmHg 89%
    11:00 -2°C° 0 mm 2 mps 753 mmHg 88%
    12:00 -2°C° 0 mm 2 mps 753 mmHg 88%
    13:00 -2°C° 0 mm 2 mps 753 mmHg 87%
    14:00 -2°C° 0 mm 2 mps 753 mmHg 87%
    15:00 -2°C° 0 mm 2 mps 753 mmHg 89%
    16:00 -3°C° 0 mm 2 mps 753 mmHg 90%
    17:00 -4°C° 0 mm 2 mps 753 mmHg 92%
    18:00 -4°C° 0 mm 2 mps 753 mmHg 92%
    19:00 -4°C° 0 mm 2 mps 753 mmHg 93%
    20:00 -4°C° 0 mm 2 mps 753 mmHg 93%
    21:00 -5°C° 0 mm 2 mps 754 mmHg 94%
    22:00 -5°C° 0 mm 2 mps 754 mmHg 94%
    23:00 -5°C° 0 mm 2 mps 754 mmHg 95%
    Show more